Theta_e
290 290 290 290 289 289 289 288 288 288 288 287 287 287 287 287 287 287 287 287 286 286 286 286 286 285 285 285 284 284 283 283 282 282 282 282 281 281 281 281 281 281 281 280 280 279 279 279 279 279 279 279 279 279 278 278 278 278 279 279 279 279 280 280 280 279 280 279 279 279 279 279 279 280 280 280 280 280 280 280 280 280 280 281 281
290 290 290 289 289 289 289 288 288 288 287 287 287 287 287 287 286 287 287 286 286 286 286 285 285 285 285 284 284 283 282 282 282 281 281 281 281 281 281 281 281 280 280 280 279 279 279 278 278 278 278 278 278 278 278 278 278 278 278 278 278 278 278 278 278 278 278 279 279 279 279 279 279 279 279 278 278 278 278 279 279 279 279 279 279
290 290 290 289 289 289 289 288 288 287 287 287 287 287 287 286 286 286 286 286 286 286 285 285 285 285 284 284 283 283 282 282 281 281 281 281 281 280 280 280 280 280 279 279 279 278 278 278 278 278 278 277 277 277 277 277 277 277 277 277 277 277 277 277 278 278 278 278 278 278 278 278 278 277 277 277 277 277 277 277 277 278 278 278 278
290 290 289 289 289 289 289 288 288 287 287 287 287 287 287 286 286 286 286 286 286 285 285 285 285 285 284 283 283 282 282 281 281 281 280 280 280 280 280 280 279 279 278 278 278 278 278 277 277 277 277 277 277 277 277 277 277 277 277 277 276 276 276 276 277 277 277 277 277 277 277 277 276 276 276 276 276 276 276 276 277 277 277 278 278
290 290 289 289 289 289 289 288 288 287 287 287 287 286 286 286 286 286 286 286 285 285 285 285 285 284 284 283 282 282 281 281 280 280 280 280 280 280 279 279 279 278 278 277 277 277 277 277 277 277 277 276 276 276 276 276 276 276 276 276 275 275 275 275 276 276 276 276 276 276 276 275 275 275 275 275 275 276 276 276 276 277 277 277 277
290 289 289 289 288 288 288 288 288 287 287 287 286 286 286 286 286 286 286 286 285 285 285 285 284 284 283 283 282 281 281 280 280 280 280 279 279 279 279 278 278 277 277 277 277 277 277 277 276 276 276 276 276 276 276 276 275 275 275 275 274 274 274 274 274 275 275 275 275 275 275 275 275 275 275 275 275 275 275 275 276 276 276 276 276
290 289 289 289 288 288 288 288 288 287 287 286 286 286 286 286 286 286 286 285 285 285 285 284 284 283 283 282 281 281 280 280 280 280 279 279 279 278 278 278 277 277 277 277 277 276 276 276 276 276 276 276 276 275 275 275 275 275 274 274 274 274 274 274 274 274 274 274 274 274 274 274 274 274 274 274 274 274 275 275 275 275 275 275 275
289 289 289 288 288 288 288 288 288 288 287 286 286 286 286 286 286 286 286 285 285 285 284 284 283 283 282 282 281 280 280 279 279 279 279 278 278 278 278 277 277 277 277 277 276 276 276 276 275 275 275 275 275 275 275 275 275 275 275 274 274 274 274 274 273 273 273 274 274 274 273 273 273 273 274 274 274 274 274 274 274 274 275 275 275
289 289 288 288 288 288 288 288 288 288 287 286 286 286 286 286 286 286 285 285 285 285 284 283 283 282 282 281 280 280 279 279 279 279 278 278 278 278 278 277 277 277 276 276 276 276 275 275 275 275 275 275 275 275 275 275 275 275 274 274 274 274 274 274 273 273 273 273 273 273 273 273 273 273 273 274 274 274 274 274 274 275 275 275 275
289 288 288 288 288 288 287 287 287 287 287 287 286 286 286 286 286 286 285 285 285 285 284 283 282 282 281 280 280 279 279 278 278 278 278 278 277 277 277 277 277 276 276 276 275 275 275 275 274 274 274 274 274 274 274 274 274 274 274 274 274 274 274 274 274 273 273 273 273 273 273 273 273 273 274 274 274 274 274 274 275 275 275 275 275
288 288 288 287 287 287 286 286 287 287 287 287 286 286 286 286 286 285 285 285 285 284 283 282 282 281 280 279 279 278 278 278 278 277 277 277 277 276 276 276 276 276 276 275 275 275 274 274 274 273 273 273 273 273 273 273 273 273 273 273 273 274 274 274 274 274 273 273 273 273 273 273 273 274 274 274 274 274 274 275 275 275 275 275 276
288 288 287 287 287 286 286 286 286 287 287 287 287 286 286 286 285 285 285 285 285 284 283 282 282 280 279 279 278 278 278 277 277 277 277 276 276 276 276 276 276 275 275 274 274 274 273 273 273 272 272 272 272 272 272 272 272 272 272 272 273 273 273 273 273 273 273 273 274 274 274 274 274 274 274 274 274 274 275 275 275 275 275 276 276
288 287 287 287 286 286 286 285 286 286 287 287 287 286 286 285 285 285 285 285 284 283 282 282 281 280 279 278 277 277 277 277 277 277 276 276 276 275 275 275 275 275 274 273 273 273 272 272 272 272 271 271 271 271 271 271 271 271 271 272 272 272 272 273 273 273 273 273 274 274 274 274 274 274 274 274 274 275 275 275 275 275 275 276 276
288 287 287 287 286 286 285 285 285 286 287 287 287 286 286 285 285 285 285 284 284 283 282 281 280 279 278 277 277 277 277 277 277 276 276 276 275 275 275 275 274 274 273 272 272 272 271 271 271 271 271 271 270 270 271 271 271 271 272 272 272 272 272 273 273 273 273 273 273 273 274 274 274 274 274 274 275 275 275 275 275 276 276 276 276
287 287 287 286 286 285 285 285 285 286 287 287 287 286 285 285 285 285 284 284 284 283 282 281 280 279 278 277 277 277 277 277 276 276 276 276 275 275 275 274 274 273 272 271 271 271 271 270 270 270 270 270 270 271 271 271 272 272 272 273 273 273 273 273 274 274 274 274 274 274 274 274 275 275 275 275 275 275 276 276 276 276 276 276 276
287 287 287 286 285 285 285 285 285 285 286 286 286 286 285 284 284 285 284 284 283 282 281 280 280 278 277 277 276 276 277 276 276 276 276 275 275 274 274 274 273 272 271 270 270 270 270 270 270 270 270 270 270 271 272 273 273 273 273 274 274 274 274 274 274 274 274 275 275 275 276 276 276 276 276 276 276 277 277 277 277 277 276 276 276
287 287 286 286 285 285 285 285 285 285 286 286 286 285 285 284 284 284 284 283 283 282 281 281 279 278 277 276 276 276 276 276 276 276 276 275 274 274 274 273 272 271 270 270 270 270 270 270 270 270 271 271 271 272 273 274 274 274 275 275 275 275 275 275 275 275 275 275 276 276 276 276 276 276 276 276 276 276 276 276 276 276 276 276 276
287 287 287 286 286 286 285 285 285 285 286 286 286 285 285 284 284 284 284 283 283 282 281 280 279 277 276 276 276 276 277 276 276 276 275 275 274 273 273 272 271 270 270 270 270 270 270 270 271 271 271 271 272 273 274 275 275 275 275 275 275 275 275 275 275 275 275 275 275 275 275 275 275 274 274 274 274 275 275 275 275 275 275 275 275
287 287 287 287 286 286 285 285 285 286 286 286 286 285 285 284 284 284 283 282 282 281 280 279 278 277 276 276 276 276 276 276 276 275 275 274 273 273 272 271 270 269 270 270 270 270 271 271 271 272 272 273 273 274 274 275 275 275 275 275 275 274 274 274 274 274 274 274 274 273 273 273 273 273 272 273 273 273 274 274 274 275 275 275 275
287 287 287 286 286 285 285 285 286 286 286 286 285 285 284 284 283 283 282 281 280 280 280 279 277 276 275 275 276 276 276 276 275 275 274 274 273 272 271 270 269 269 270 270 270 271 271 271 271 272 272 273 273 274 275 275 275 275 275 274 273 273 273 273 273 273 272 271 271 271 271 271 271 271 271 271 272 272 273 273 274 274 274 275 275
287 287 287 286 286 285 285 285 285 285 286 285 285 284 284 283 283 283 282 281 280 279 278 278 277 276 275 275 275 276 276 275 275 275 274 273 273 272 270 270 270 270 270 271 271 271 271 271 272 272 272 273 274 274 274 274 274 274 273 272 272 273 273 272 271 270 269 269 269 269 269 269 269 269 270 270 270 271 271 272 272 273 273 273 273
287 287 287 286 286 285 285 285 285 285 285 284 283 283 283 282 282 282 281 280 279 278 278 277 276 275 274 274 275 275 275 275 275 274 274 273 272 271 270 270 271 271 271 272 272 272 272 272 272 272 273 273 274 274 273 273 273 272 271 271 272 272 271 270 268 268 267 267 267 267 268 268 268 268 268 269 269 270 270 270 270 271 271 271 271
287 287 287 286 286 285 285 284 284 284 284 283 283 282 282 281 281 280 280 279 278 277 277 276 275 274 274 274 274 275 275 274 274 274 274 273 272 271 271 271 272 272 272 272 272 272 272 273 273 273 273 273 273 272 272 272 271 270 270 271 271 270 269 268 267 266 266 266 266 267 267 267 267 268 268 268 269 269 269 269 269 269 269 269 270
287 287 286 286 286 285 284 284 283 283 283 282 281 281 281 280 280 279 278 278 277 277 276 275 274 273 273 274 274 274 274 274 273 273 273 272 271 270 271 272 272 272 272 272 272 272 272 273 273 273 273 272 271 271 271 270 269 270 270 270 269 268 267 266 266 266 266 266 266 266 266 266 267 267 267 267 267 267 267 267 267 268 268 269 269
287 287 286 286 285 285 284 283 282 282 282 281 281 281 280 279 279 278 277 277 277 276 276 274 274 273 273 273 273 273 273 273 273 273 272 271 269 270 271 271 272 272 272 272 272 272 273 273 273 272 271 271 270 270 269 268 268 269 269 268 268 267 266 266 266 266 266 266 266 266 266 266 266 267 267 267 267 267 267 267 267 268 268 268 269
287 286 286 285 285 284 283 282 281 281 280 280 280 280 280 280 279 278 277 277 276 276 275 274 273 273 273 273 273 273 273 273 273 272 272 270 269 270 270 271 271 272 272 272 272 272 272 272 271 270 270 269 269 268 268 268 268 268 268 267 267 266 266 266 266 266 267 267 266 266 267 267 267 267 267 267 267 267 267 268 268 268 268 269 269
286 286 285 284 283 283 282 281 281 280 279 279 279 278 278 279 279 278 278 277 276 275 274 273 272 272 272 273 272 272 272 272 272 271 271 270 269 269 270 270 271 271 272 272 272 271 271 270 270 269 269 269 268 268 268 267 267 267 267 267 266 266 266 266 266 266 266 267 267 267 267 267 267 267 267 267 267 268 268 268 268 268 269 269 269
286 285 284 284 283 282 281 281 280 279 279 278 278 278 278 278 278 278 279 279 278 277 276 274 274 274 274 273 272 271 271 272 272 271 270 270 269 269 270 270 270 271 272 272 272 271 271 270 269 269 268 268 268 268 268 267 267 267 267 267 266 266 266 266 266 267 267 267 267 267 267 267 267 267 267 268 268 268 268 268 268 269 269 269 270
285 284 284 283 282 281 280 280 279 279 278 278 278 278 278 278 278 278 279 279 279 279 278 277 276 275 274 273 272 271 271 272 272 271 270 269 269 270 270 271 271 272 272 272 272 271 270 269 269 268 268 268 268 268 268 267 267 267 267 267 266 266 266 266 267 267 267 267 267 267 267 267 267 268 268 268 268 268 268 268 268 268 269 269 269
284 283 282 282 281 280 279 278 278 277 277 277 276 276 276 276 276 277 277 277 277 276 276 275 275 274 273 273 273 272 272 272 271 270 270 270 270 271 271 271 272 272 272 272 271 270 269 269 268 268 267 267 267 267 267 267 266 267 267 266 266 266 266 266 266 266 267 267 267 267 267 267 268 268 268 268 268 268 268 268 268 268 268 269 269
283 282 282 281 280 279 278 277 276 275 275 274 274 273 272 272 273 274 274 275 275 274 273 273 272 272 272 272 272 271 271 271 270 270 271 271 271 271 271 272 272 272 272 271 270 269 269 268 267 267 267 266 266 266 266 266 266 266 266 266 266 266 266 266 266 266 267 267 267 267 268 268 268 268 267 267 268 267 268 268 268 268 268 268 269
283 282 282 281 280 279 278 277 275 274 273 272 272 271 271 270 271 271 272 272 272 272 272 271 270 270 271 271 271 270 270 270 270 271 271 271 271 271 271 272 272 272 271 270 269 268 268 267 267 267 267 266 266 266 265 265 265 265 265 265 265 266 266 266 266 266 266 267 267 268 268 268 268 267 267 267 267 267 267 268 268 268 268 268 269
282 282 281 280 279 278 277 276 275 274 273 272 271 270 270 270 270 270 271 270 270 270 270 270 270 270 270 270 271 271 270 270 270 270 270 270 270 271 271 272 272 271 270 269 268 268 267 267 267 267 267 267 266 266 265 265 265 265 265 265 265 265 266 266 266 266 266 267 267 268 268 268 268 268 267 267 267 267 267 267 268 268 268 268 268
282 281 281 280 279 278 277 276 275 274 273 272 271 270 270 270 270 270 270 270 270 270 270 270 270 271 271 271 271 271 271 271 270 270 270 270 270 270 271 271 271 270 269 268 268 267 267 267 267 267 267 266 266 265 265 265 265 264 265 265 265 265 265 265 266 266 266 267 268 268 268 268 268 267 267 267 267 267 267 267 267 267 268 268 268
280 280 279 278 278 277 277 276 275 273 272 272 271 270 270 270 270 270 271 271 271 270 270 270 270 270 270 270 270 271 271 270 270 270 270 270 270 270 271 270 269 268 268 267 267 267 266 266 267 267 266 266 265 265 264 264 264 264 264 264 265 265 265 265 265 266 266 267 267 268 268 268 268 267 267 267 267 266 266 266 267 267 268 268 268
279 278 278 277 276 276 276 275 274 273 272 272 271 270 270 270 270 270 270 270 270 270 269 270 270 269 269 269 269 269 269 269 269 269 269 269 270 270 270 269 268 268 267 266 266 266 266 266 266 266 266 265 265 265 264 264 264 264 264 264 264 264 264 264 265 265 266 266 267 267 268 268 267 267 267 267 267 266 266 266 266 267 267 267 268
278 277 277 276 275 275 274 274 273 272 272 271 270 270 269 269 269 269 269 269 269 269 268 268 268 268 268 268 268 268 268 268 269 269 269 269 270 269 269 268 267 267 267 266 266 266 266 266 266 265 265 265 265 265 264 264 264 264 264 264 264 264 264 264 264 265 265 266 266 267 267 267 267 267 267 267 267 267 266 266 266 266 267 267 267
277 276 276 275 274 274 273 272 272 271 270 270 269 269 268 268 268 268 268 268 268 267 267 267 267 267 267 267 268 267 267 267 268 268 268 269 269 268 267 267 266 266 266 266 265 265 265 265 265 265 265 265 265 265 264 264 264 264 264 264 264 265 265 265 264 265 265 265 265 266 267 267 267 267 267 267 267 267 266 266 266 266 266 267 267
275 275 274 273 272 272 272 271 270 270 269 269 268 268 268 267 267 267 267 266 266 266 266 266 265 266 266 267 267 267 266 266 266 267 267 268 268 267 266 266 266 266 266 265 265 265 265 265 265 265 265 265 265 265 265 264 264 264 264 264 264 265 265 265 265 265 264 264 265 265 266 267 267 267 266 267 267 267 266 266 266 266 266 266 267
274 273 272 271 270 270 270 270 269 269 268 268 267 267 267 266 266 266 266 266 265 265 265 265 265 266 266 266 266 266 266 265 266 266 266 266 267 266 266 266 265 265 265 265 265 265 265 265 265 265 265 265 265 265 265 265 264 264 264 264 264 264 264 265 265 265 265 265 264 265 266 266 266 266 266 267 267 267 266 266 266 266 266 266 266
271 271 270 269 269 268 268 268 268 268 267 267 267 266 266 266 265 265 265 265 265 264 264 265 265 266 266 266 265 265 265 265 265 265 265 265 266 265 265 265 265 265 265 265 265 265 265 265 265 265 265 265 265 265 265 265 264 264 264 264 264 264 264 264 264 265 265 264 264 264 265 265 265 265 266 266 267 267 266 266 266 265 265 265 265
269 269 268 267 267 267 267 267 266 266 266 266 265 265 265 265 265 265 265 264 264 264 264 264 265 266 266 265 264 264 265 265 264 264 265 265 265 265 265 265 265 265 265 265 265 265 265 265 265 265 265 265 265 265 265 264 264 264 263 263 263 263 264 264 264 264 264 264 264 264 264 264 264 264 265 266 266 266 266 266 266 265 265 265 265
267 267 267 266 266 266 266 266 265 265 265 265 264 264 264 264 264 264 264 264 264 263 263 264 265 266 265 265 264 265 265 265 264 264 264 264 264 265 265 265 265 264 264 265 265 265 264 265 265 265 265 265 265 265 265 264 264 263 263 263 263 263 263 264 264 264 264 263 263 263 263 263 263 264 265 265 266 266 266 266 266 265 265 265 265
265 265 265 265 265 265 265 265 265 264 264 264 264 264 264 264 264 263 263 263 263 263 263 264 264 264 265 264 264 264 265 265 264 264 264 264 264 265 265 265 264 264 264 265 265 264 264 264 264 264 264 265 265 265 265 264 264 263 263 263 263 263 263 263 263 263 263 263 262 262 262 262 263 263 264 265 265 265 266 266 266 265 265 265 265
265 265 264 264 264 264 264 264 264 264 264 263 263 263 263 263 263 263 262 262 262 263 263 263 263 263 263 263 263 264 264 264 264 264 264 264 265 265 265 264 264 264 264 264 264 264 264 264 264 264 264 264 264 264 264 264 264 264 263 263 263 262 263 263 262 262 263 262 262 261 261 262 262 263 263 264 265 265 266 266 266 266 265 265 265
264 264 264 264 264 264 263 263 263 263 263 263 263 262 262 262 262 262 262 262 262 262 262 262 262 262 262 262 263 263 263 264 264 264 264 264 265 265 265 264 264 264 264 264 264 264 264 264 264 264 264 264 264 264 264 264 264 264 263 263 263 262 262 262 262 262 262 262 261 261 261 261 261 262 263 264 264 265 265 266 266 266 266 265 265
263 263 263 263 263 263 263 263 263 263 262 262 262 262 262 262 262 262 262 262 262 262 262 262 262 262 262 262 262 263 263 264 264 264 264 264 264 264 264 264 264 264 264 264 264 264 264 264 264 264 264 264 264 264 264 264 264 263 263 263 263 263 263 262 262 261 261 261 261 261 261 261 261 262 263 263 263 264 265 266 266 266 266 265 265
263 263 263 263 263 263 263 263 263 262 262 262 262 262 262 262 261 262 262 262 262 262 262 262 262 262 262 262 263 263 263 263 263 264 264 264 264 264 264 264 264 264 264 264 264 264 264 264 264 264 263 263 263 263 263 263 263 263 263 263 263 263 263 262 262 262 261 261 261 261 261 261 261 262 262 263 263 264 265 266 266 266 266 266 266
263 263 263 263 263 263 263 263 262 262 262 262 262 262 261 261 261 261 262 262 262 262 262 262 262 262 262 263 263 263 263 263 263 264 264 264 264 264 264 264 264 264 264 264 264 264 263 263 263 263 263 263 263 263 263 263 263 263 263 263 263 262 262 262 262 262 262 262 261 261 261 261 261 262 262 262 263 264 265 266 266 266 266 266 266
263 263 263 263 262 262 262 262 262 262 262 262 261 262 261 261 261 261 262 262 262 262 262 262 262 262 262 262 262 262 262 262 262 263 263 263 263 263 263 263 263 263 263 263 263 263 263 263 263 263 263 263 263 263 263 263 263 263 262 262 262 262 262 262 262 262 262 262 261 261 261 261 261 261 261 262 263 264 265 266 266 266 266 266 266
262 262 262 262 262 262 262 262 261 261 261 261 261 261 261 261 261 261 261 261 261 261 262 262 262 262 262 262 262 262 262 262 262 262 262 263 263 263 262 262 263 263 263 263 263 263 263 262 262 262 262 262 262 262 262 262 262 262 262 262 262 262 262 262 262 262 262 262 261 261 261 261 261 261 261 262 263 264 265 265 266 267 267 266 266
Wind_Speed
29 29 28 28 28 27 26 25 24 23 22 21 20 19 18 17 16 15 14 13 11 10 10 9 8 6 6 5 4 3 3 3 3 3 3 4 4 5 6 8 9 9 10 11 11 11 13 14 16 16 15 15 17 18 19 18 17 17 16 16 17 15 16 20 17 22 36 38 34 32 27 27 29 25 24 30 32 32 33 35 34 34 32 30 30
30 29 29 28 28 27 27 26 24 23 22 21 20 19 18 17 16 14 13 13 11 10 9 8 8 7 6 5 4 3 3 3 3 3 3 4 4 5 7 8 9 10 11 12 12 12 13 15 16 16 15 16 18 18 19 18 17 17 17 16 19 19 17 20 21 21 30 38 37 33 27 24 27 27 25 28 33 32 32 34 34 33 33 33 34
30 30 29 29 28 28 27 26 25 23 22 21 20 19 18 17 15 14 13 12 10 9 9 8 7 6 6 5 4 3 3 3 3 3 4 4 5 6 7 8 9 10 12 13 13 14 15 16 17 16 16 17 19 19 18 18 17 17 19 19 20 22 19 19 22 22 25 34 37 34 27 23 26 29 27 27 29 29 30 33 34 34 34 34 33
30 30 30 30 29 29 28 27 25 24 22 21 20 19 18 17 15 14 12 11 10 9 8 7 7 6 5 4 3 3 3 3 4 4 5 5 6 7 8 9 10 11 12 13 14 15 15 17 17 17 18 18 19 19 18 18 18 18 20 21 20 22 22 19 21 22 24 30 35 34 28 25 26 28 28 28 28 27 27 30 32 33 33 30 29
30 31 31 31 30 30 29 27 25 24 23 21 20 19 18 17 15 13 12 10 9 8 7 6 5 4 3 2 3 3 3 4 4 4 5 6 7 8 9 10 11 12 13 14 14 15 16 17 18 17 18 19 20 20 19 19 20 19 20 22 22 22 23 21 21 22 23 27 33 34 29 25 25 27 26 26 27 27 26 27 28 29 29 29 29
31 32 32 32 32 30 29 28 26 24 23 22 20 19 18 16 14 13 11 10 8 7 5 4 3 2 2 2 2 3 4 4 5 5 6 7 8 9 10 11 12 12 13 14 14 16 17 17 18 18 18 19 20 20 20 20 21 22 22 24 24 23 22 22 21 21 23 25 28 31 29 24 23 24 22 22 25 27 27 27 26 25 26 29 31
32 33 33 33 33 32 30 29 26 24 23 22 21 19 18 16 13 12 11 9 7 6 4 3 2 1 1 2 2 3 4 4 5 6 7 8 9 10 11 11 13 13 14 15 15 16 17 17 18 18 18 18 20 20 21 22 23 24 24 22 20 19 20 19 19 19 20 22 23 24 25 22 21 21 22 22 23 23 24 25 25 25 26 28 30
34 34 34 34 34 33 31 29 27 25 23 22 21 19 18 15 13 12 11 9 8 6 4 3 2 2 2 2 3 4 5 5 6 6 7 9 10 11 12 13 14 15 16 17 17 17 17 17 17 17 17 17 18 19 20 22 24 24 23 20 17 16 16 16 16 17 18 20 21 22 23 22 20 20 21 22 21 20 21 23 25 27 28 27 28
34 34 34 35 34 33 31 29 27 26 24 23 22 20 18 16 14 13 11 10 9 7 5 4 4 4 3 4 4 4 5 5 6 7 8 10 11 13 14 15 16 17 18 19 19 18 18 18 17 16 17 17 17 18 19 19 21 22 23 21 19 18 17 17 18 19 19 20 21 21 21 21 19 20 21 21 21 23 24 24 25 25 27 28 28
35 35 35 35 34 33 32 30 28 27 25 24 22 21 19 17 16 14 12 11 9 7 6 6 6 5 5 5 5 5 5 5 6 8 9 11 13 15 15 17 17 18 19 20 20 20 19 18 18 18 18 18 18 18 19 18 18 20 21 21 20 20 20 21 20 20 19 20 20 21 21 21 20 21 23 24 24 25 25 24 24 25 26 26 26
36 36 35 35 34 34 32 31 30 29 27 25 23 21 20 19 17 16 14 12 10 9 8 8 7 6 6 7 6 5 5 6 6 8 10 11 13 15 16 18 19 19 19 20 20 21 20 20 20 19 18 18 19 20 20 19 18 19 19 19 19 19 21 22 21 20 20 21 20 19 20 23 24 24 24 26 26 25 25 24 23 24 24 21 21
37 36 36 35 35 35 34 33 32 30 28 26 24 23 22 21 19 17 15 13 11 10 10 9 8 8 8 8 7 6 5 6 7 8 10 11 12 15 16 18 19 19 19 19 19 19 20 21 20 19 18 19 20 21 22 21 19 18 18 18 17 18 18 20 21 22 22 22 22 21 20 24 26 25 25 26 27 27 27 26 24 23 24 22 22
37 36 35 35 36 36 35 34 34 32 29 27 26 25 24 23 21 19 16 14 13 12 11 11 9 9 9 9 8 6 6 7 8 9 10 11 12 14 16 18 18 19 19 18 18 18 18 20 20 20 20 20 20 21 22 22 20 18 18 18 18 18 18 19 21 23 25 25 26 25 25 27 28 27 28 30 30 29 28 27 25 24 25 25 26
36 36 36 36 36 36 36 36 35 33 30 29 28 27 27 25 23 20 18 16 15 14 13 12 11 10 10 10 8 7 7 7 8 9 10 11 12 14 16 17 18 18 17 16 17 17 17 18 20 21 21 20 20 21 21 21 20 20 21 21 22 23 24 25 26 26 27 28 30 32 32 32 32 33 34 34 33 32 31 30 29 28 29 30 32
36 36 36 37 37 36 36 36 35 34 32 30 30 30 29 26 24 21 19 17 16 14 14 13 12 12 11 11 9 8 7 8 8 9 10 11 13 14 16 17 17 17 16 15 15 16 16 17 18 19 20 20 20 19 19 19 20 22 24 26 28 30 30 30 30 30 30 31 33 36 36 36 37 38 38 37 37 36 35 34 33 33 33 32 31
35 36 36 36 36 37 37 37 36 35 34 32 32 32 30 28 26 23 20 19 17 16 15 14 13 13 12 12 10 8 7 8 8 9 11 12 13 15 16 17 16 16 15 14 13 13 13 15 16 18 19 19 19 18 19 20 22 25 28 29 29 30 30 30 30 30 30 31 33 35 36 37 37 36 34 33 32 32 32 30 29 29 29 27 25
36 36 36 35 36 37 38 38 38 37 35 34 34 34 32 30 27 24 22 21 19 18 16 15 14 14 13 12 10 8 7 8 8 9 11 12 13 15 16 16 15 14 13 12 11 11 11 13 15 17 17 18 19 20 21 22 24 26 28 29 29 30 30 30 29 29 29 30 31 32 33 34 32 30 30 31 32 33 33 31 30 29 26 21 18
37 37 37 37 39 40 41 40 39 38 37 37 36 34 33 31 28 26 24 22 20 18 17 16 15 14 13 12 10 9 8 7 8 10 11 11 13 15 15 14 13 12 11 10 9 9 11 12 14 16 17 19 20 21 21 22 25 27 28 29 29 28 27 27 28 28 29 29 30 30 31 32 33 34 36 37 38 37 34 33 33 31 25 20 18
39 40 41 41 41 41 40 40 40 39 38 37 36 35 34 31 29 27 25 22 20 19 17 17 16 15 13 11 10 9 8 8 8 10 10 10 12 14 14 13 12 11 9 9 9 10 12 14 14 15 17 19 20 21 21 22 25 28 28 26 25 24 25 26 28 29 29 30 31 32 35 36 37 37 36 35 34 32 30 31 32 29 26 24 23
42 41 40 38 38 39 39 40 41 40 39 37 36 35 34 32 30 28 25 23 21 20 18 18 17 15 13 11 10 10 9 9 9 10 10 10 11 12 12 12 11 10 9 9 12 13 13 14 15 15 16 18 19 20 22 23 26 28 28 26 24 26 28 28 27 28 29 30 31 32 33 33 32 31 30 29 27 26 26 26 27 26 25 24 23
38 37 35 35 36 38 39 40 40 40 39 37 35 34 33 32 31 28 26 24 22 21 19 18 17 16 13 12 10 10 10 10 9 9 10 10 10 10 11 12 11 10 10 11 12 12 13 15 16 15 16 17 19 21 23 24 25 26 26 25 25 25 26 26 26 27 27 27 27 28 28 28 27 27 26 26 25 25 25 24 24 24 24 24 24
33 33 33 34 35 36 38 39 39 38 38 36 35 34 33 32 30 28 26 24 22 21 20 19 17 16 14 12 11 10 10 10 10 9 10 11 10 9 10 11 10 10 11 12 12 13 15 17 16 15 16 18 21 23 24 24 23 22 21 21 21 21 22 23 24 24 24 24 24 25 25 25 25 25 25 25 24 23 23 24 25 26 27 27 27
29 30 32 33 34 35 37 38 38 38 38 36 35 34 33 32 30 28 26 25 23 22 20 19 18 17 15 13 11 10 10 10 10 10 10 10 9 8 10 11 10 10 11 12 12 14 15 15 14 15 17 20 22 22 22 21 19 18 18 18 18 19 20 21 22 22 22 22 21 22 23 23 24 24 24 24 23 23 23 25 27 27 27 27 27
27 28 30 32 33 34 35 36 37 37 37 36 35 34 33 32 30 28 27 25 24 23 21 20 19 18 17 14 12 10 10 10 10 10 10 10 8 8 10 10 9 10 11 12 13 14 14 14 14 16 18 20 20 20 19 18 16 16 16 17 17 18 19 20 21 22 22 21 21 22 24 24 24 24 24 24 24 25 27 27 26 25 25 25 26
26 28 30 32 33 34 34 35 36 36 36 36 36 35 34 33 31 29 28 26 25 24 22 21 21 19 18 16 13 11 10 10 10 10 10 9 9 9 10 10 9 10 11 12 12 12 12 13 14 17 19 19 19 19 18 17 15 14 15 16 16 17 18 19 20 21 21 21 22 23 25 25 26 26 26 26 27 27 28 27 26 26 26 26 26
26 28 30 31 32 33 33 34 35 35 35 35 36 36 36 35 33 31 30 28 27 26 24 23 22 21 19 17 14 12 10 10 10 10 10 10 9 8 9 9 9 10 10 11 11 11 12 13 15 17 18 17 16 17 17 15 13 13 14 15 15 16 17 18 19 19 20 21 22 23 25 26 27 27 27 27 27 27 27 27 28 29 28 27 27
26 28 29 30 31 33 34 34 35 35 35 35 35 35 35 35 34 33 32 31 29 28 26 24 24 23 21 18 15 13 11 10 11 11 10 9 8 6 6 6 6 7 9 11 12 13 15 16 17 17 16 15 14 14 13 13 13 14 14 14 14 15 15 16 17 18 20 21 22 24 26 27 28 28 29 28 27 27 27 26 26 27 27 27 26
26 27 28 30 31 32 34 35 35 36 36 37 37 38 38 37 37 37 37 35 33 30 29 28 27 26 23 19 16 14 13 12 12 12 10 9 8 6 5 6 6 8 10 11 11 12 14 16 18 17 15 14 14 14 13 12 13 13 14 14 14 14 14 15 16 17 19 21 23 25 27 28 28 29 29 28 27 27 27 26 25 26 27 26 24
26 27 28 30 31 32 33 34 35 36 37 38 39 40 40 40 40 39 37 34 31 29 28 28 27 25 22 19 17 16 15 12 11 10 10 11 10 8 8 9 10 10 11 10 9 11 14 17 18 16 13 13 14 15 14 14 14 14 13 14 14 15 15 16 17 19 20 22 24 25 26 27 27 27 28 28 28 28 27 26 25 26 26 25 23
25 27 28 30 31 32 33 34 35 36 36 38 38 38 38 37 37 36 34 32 29 27 25 25 24 22 21 19 18 16 14 11 9 10 12 13 12 11 12 12 12 11 10 9 10 13 15 17 16 13 12 13 14 15 15 15 16 15 14 14 14 15 16 16 17 19 21 22 23 24 24 24 24 26 27 28 29 30 29 27 26 25 25 24 23
25 26 28 30 31 32 33 33 34 34 34 35 35 34 33 32 32 32 31 29 28 26 25 23 22 21 21 20 17 15 13 10 10 13 14 13 13 12 13 13 12 12 10 10 11 14 15 16 14 12 11 12 13 14 15 15 16 16 16 16 15 15 16 17 18 19 21 22 23 22 21 21 24 25 26 27 29 30 30 28 27 25 25 24 24
26 28 29 30 30 31 32 32 32 32 32 32 32 31 30 29 28 28 27 26 26 25 24 22 21 20 19 18 17 15 13 12 14 15 14 13 13 12 12 13 12 11 9 9 12 15 15 15 14 12 12 12 13 14 14 15 15 15 16 17 17 16 16 17 18 19 20 21 22 20 19 22 25 26 26 27 27 28 29 28 27 27 26 26 24
28 29 29 29 29 30 31 32 32 33 33 33 32 31 30 29 28 26 24 23 22 22 22 21 20 19 18 17 16 14 12 13 15 16 15 13 13 12 12 13 12 11 10 11 14 16 15 14 13 12 12 12 12 13 14 14 14 14 15 16 17 17 17 17 18 18 19 20 20 19 19 22 25 25 27 27 27 27 27 27 27 27 26 25 25
27 28 28 28 29 30 31 32 33 33 33 32 32 32 32 30 28 25 23 23 22 21 21 20 18 18 19 18 17 16 14 14 15 16 15 14 13 12 12 13 12 11 11 13 15 14 13 13 13 12 11 11 12 13 14 14 15 15 15 15 16 17 17 17 17 17 19 20 20 19 20 22 23 25 26 27 27 27 27 26 26 27 26 25 26
25 26 27 27 28 29 30 31 32 32 32 32 32 31 31 29 26 25 25 26 26 25 24 22 20 19 19 19 18 17 16 16 16 16 15 14 13 13 13 15 16 14 13 15 15 14 12 12 12 11 10 11 11 12 13 15 15 15 15 15 16 17 17 17 17 17 19 19 20 20 20 21 23 25 26 26 26 27 27 27 27 26 25 25 25
23 24 25 26 27 28 28 29 30 31 31 31 31 30 29 28 26 25 24 24 24 23 23 23 22 20 19 18 18 17 17 16 16 16 15 14 13 14 17 19 18 17 16 16 16 14 13 12 11 10 10 11 11 11 13 14 15 15 14 15 15 16 17 17 17 17 18 19 19 20 21 21 23 25 25 26 26 26 26 27 27 26 25 24 23
21 23 24 25 25 26 27 27 28 28 28 28 28 27 26 26 26 25 23 22 21 20 19 19 19 20 20 20 20 19 17 16 15 15 15 14 14 17 21 21 20 19 18 17 15 14 14 13 12 11 10 10 11 11 12 13 14 15 14 14 15 15 16 17 16 17 17 18 19 20 21 21 22 24 24 25 26 26 27 27 27 26 26 25 24
19 21 22 23 23 24 25 25 25 25 25 25 25 25 25 24 24 23 23 21 20 19 18 17 17 19 21 21 21 20 18 16 15 16 16 16 17 20 22 21 20 19 19 17 15 14 14 14 13 11 11 11 11 11 12 12 13 14 14 14 15 15 15 16 16 17 17 18 19 20 20 20 20 22 23 25 27 26 26 27 27 26 27 26 25
18 19 20 20 20 21 22 23 22 22 23 23 23 23 23 22 22 21 21 20 18 18 17 17 18 19 19 19 19 20 20 19 20 21 21 21 21 22 22 20 19 19 17 16 15 14 14 14 13 12 12 11 11 11 12 12 13 14 14 14 15 16 16 16 17 18 18 18 19 19 20 19 20 22 23 25 26 26 26 27 27 26 26 26 26
16 17 18 18 18 19 20 21 21 22 22 22 22 22 22 22 21 21 20 19 18 17 17 17 19 19 18 17 18 19 21 22 23 24 23 22 23 23 22 21 19 18 17 16 15 15 15 14 14 13 13 12 12 12 12 13 14 14 15 15 16 17 17 17 17 18 18 18 19 19 20 20 21 22 23 24 24 25 26 27 27 26 25 25 25
13 14 15 15 16 17 18 19 20 21 21 21 21 21 21 21 20 20 19 18 18 17 17 18 19 18 17 16 17 19 21 21 21 20 20 20 21 22 22 21 19 17 17 16 15 15 15 15 15 15 14 13 13 13 13 13 14 15 16 16 17 18 19 19 19 19 18 19 19 19 19 20 21 22 23 23 24 26 27 28 27 26 25 24 24
11 12 13 13 15 16 16 17 18 18 18 19 19 19 19 19 18 18 18 17 17 16 16 17 18 17 16 15 15 17 19 20 19 19 19 19 19 20 21 21 19 17 17 16 16 15 15 16 16 17 16 15 15 14 14 15 15 15 16 17 18 19 20 20 20 20 20 19 19 19 19 20 21 22 22 23 24 26 28 28 27 26 25 25 24
10 10 11 12 13 14 15 16 16 17 17 17 17 16 16 17 17 16 16 16 17 16 16 17 16 16 16 15 14 16 18 19 19 19 20 20 20 21 21 20 18 17 16 16 16 16 16 17 17 18 18 18 17 16 16 17 17 17 18 19 20 20 21 21 22 21 20 20 20 19 19 20 22 22 22 22 23 25 27 28 27 26 26 25 25
9 9 11 12 12 12 13 14 15 15 16 15 15 15 15 15 15 16 16 16 16 17 17 17 16 16 16 15 15 17 20 20 20 20 21 20 20 20 19 17 17 17 17 17 17 17 17 18 19 19 19 19 18 18 19 19 19 20 20 21 21 22 22 22 22 21 21 21 21 20 20 22 23 22 20 20 22 24 26 27 27 26 26 25 25
9 10 11 12 12 12 12 13 13 14 14 14 14 14 14 14 15 15 15 15 16 16 16 16 16 16 16 16 15 17 20 22 22 22 22 21 20 20 19 18 18 18 18 18 18 18 19 19 20 20 21 20 19 19 20 21 21 22 22 22 23 23 23 22 21 20 20 20 20 21 22 23 22 21 20 20 21 23 25 27 27 26 25 25 25
9 11 12 12 12 12 12 12 12 13 13 13 13 13 14 14 14 15 15 15 15 15 15 16 16 16 16 16 16 16 17 19 20 21 21 20 20 19 19 19 19 19 19 19 19 19 20 21 22 22 23 22 21 21 21 22 22 23 23 23 23 24 23 22 21 20 19 19 20 21 23 23 21 19 19 20 21 22 24 27 27 25 24 24 24
10 11 12 12 12 12 12 11 11 11 12 12 12 13 13 13 13 14 14 15 15 15 15 15 16 16 15 15 16 16 16 16 17 18 18 18 18 19 19 20 20 21 21 20 20 21 21 22 23 24 24 24 24 23 23 23 23 23 23 22 22 22 21 20 19 19 19 19 20 22 23 23 20 18 19 20 22 22 24 26 26 25 23 23 23
9 10 11 11 11 11 10 10 10 11 11 11 12 12 12 13 13 13 14 14 15 15 16 16 16 16 16 16 16 16 16 16 16 16 16 17 17 18 18 19 20 21 22 22 22 22 23 23 24 25 25 26 25 25 24 23 22 22 22 21 20 20 19 18 18 18 19 19 20 22 23 22 20 19 19 21 22 22 23 26 26 24 22 22 23
7 8 8 8 9 9 9 9 10 10 10 11 12 12 13 13 13 14 14 15 15 15 16 16 16 17 17 17 17 17 17 17 17 17 17 17 18 18 18 19 20 21 22 23 23 23 23 24 24 25 26 26 26 25 24 23 22 22 21 21 20 19 18 17 18 18 18 19 21 22 21 20 19 20 21 22 22 22 24 26 25 23 21 21 22
4 5 6 6 7 7 8 8 9 9 10 10 11 12 12 13 14 14 14 15 15 16 16 16 17 17 17 17 17 17 18 18 18 19 18 18 19 19 19 20 20 21 22 23 23 24 24 24 25 25 26 25 24 24 23 23 23 22 21 20 19 18 18 17 18 18 18 18 19 19 18 19 21 22 23 23 22 22 24 26 24 21 20 20 20
2 3 4 5 6 7 8 8 8 9 10 10 11 12 12 13 13 14 14 15 16 16 17 17 17 17 18 18 18 19 19 20 20 20 20 21 21 21 21 22 22 22 23 24 24 24 24 24 24 24 24 24 23 23 23 23 22 21 20 19 18 18 17 17 17 17 16 16 17 18 19 21 23 23 22 22 22 23 25 26 23 20 19 19 20
Wind_Direction
161 159 159 158 155 153 151 149 146 144 142 140 136 133 130 126 121 116 110 105 101 100 97 93 91 87 81 75 66 58 44 30 19 8 7 6 359 355 352 349 349 347 344 342 339 334 326 322 325 329 328 321 316 316 316 318 316 309 306 301 296 293 291 289 283 286 294 298 299 302 309 313 312 315 314 309 308 311 310 309 311 313 314 314 312
165 163 162 161 158 156 154 151 150 149 146 144 139 135 132 128 124 120 114 110 107 103 100 95 90 82 73 66 56 46 32 17 8 356 353 354 348 345 341 339 339 337 335 334 333 328 322 320 323 326 324 316 312 315 316 317 315 309 305 301 296 295 293 291 288 285 291 297 300 303 310 315 312 313 316 312 310 313 313 310 311 311 310 310 309
170 168 165 163 161 159 158 156 155 153 149 147 143 139 137 134 131 127 120 117 115 110 102 92 82 72 62 53 41 25 9 356 349 344 339 337 335 334 332 330 331 331 330 329 327 324 321 319 321 323 319 314 313 316 318 316 312 306 301 299 297 297 297 293 288 286 289 294 298 302 309 315 312 311 315 313 311 313 313 309 309 309 310 312 312
173 170 167 166 164 163 162 161 159 157 154 152 148 146 144 143 140 134 127 125 124 116 104 89 77 67 55 42 21 357 347 339 332 332 330 326 326 326 328 328 328 328 326 324 322 320 318 317 319 321 317 314 314 316 317 313 308 303 300 300 299 298 298 295 289 288 291 293 295 299 306 313 312 311 313 314 312 313 312 310 310 312 315 316 316
176 173 171 169 169 168 167 165 164 162 160 157 155 154 153 151 147 141 138 137 133 122 108 94 80 68 53 31 0 335 328 326 323 322 320 319 321 324 326 327 326 324 321 320 319 317 315 315 316 318 316 313 313 314 314 311 307 303 300 300 300 299 298 296 292 291 291 290 293 298 304 311 311 311 313 316 315 314 314 311 311 313 315 314 312
179 176 175 174 172 172 171 170 170 167 164 164 163 162 160 158 155 150 148 147 140 132 122 110 94 71 38 0 333 320 314 314 313 313 313 315 318 320 322 322 318 316 316 316 316 314 313 314 314 314 313 310 310 312 311 308 304 301 302 303 303 302 299 297 296 295 291 290 292 298 305 311 313 313 315 317 315 315 315 313 313 314 313 311 311
181 179 179 178 176 175 175 176 175 171 170 171 170 169 168 165 164 161 158 156 153 153 148 136 135 173 306 318 310 303 301 302 303 306 310 313 316 316 317 315 313 314 316 316 315 315 314 313 312 311 311 308 307 308 307 304 303 303 305 307 305 303 301 299 299 297 294 293 294 298 304 310 313 312 313 315 313 312 314 315 315 315 313 311 311
183 182 183 181 180 180 180 180 178 177 177 178 177 176 175 173 173 172 169 169 171 174 171 175 202 226 259 285 289 287 288 293 299 305 310 311 312 313 314 316 317 318 318 317 317 318 315 314 313 312 309 306 304 304 302 302 304 304 305 306 303 300 299 298 299 299 297 296 297 300 304 308 312 312 312 314 312 311 313 312 310 310 310 310 310
185 185 185 184 183 183 183 183 183 183 183 184 184 183 182 182 182 181 180 183 186 187 190 206 224 241 260 271 272 273 280 290 300 306 310 310 312 315 317 319 320 319 320 320 319 319 318 317 316 311 307 304 300 298 298 300 301 301 302 303 300 296 293 293 294 296 296 296 297 301 303 304 309 312 310 310 308 306 309 307 303 304 307 307 307
188 187 188 187 186 186 186 186 187 189 189 190 190 189 189 190 190 189 191 193 196 199 206 216 230 246 260 266 266 268 278 292 302 307 311 314 315 316 318 319 320 319 320 320 318 318 318 316 313 310 309 307 302 299 298 299 298 298 300 301 298 294 292 291 290 290 292 292 293 298 299 299 304 306 304 303 301 300 302 302 300 303 305 304 303
191 191 190 189 189 188 188 189 191 193 193 194 195 195 197 198 196 197 198 200 205 208 215 224 233 244 252 259 264 268 278 291 301 305 308 311 313 314 317 318 319 318 318 317 316 316 315 313 313 313 313 309 305 302 300 300 301 300 299 299 297 294 293 293 293 292 289 286 286 288 289 292 297 299 297 297 295 295 296 297 296 298 300 300 300
194 194 192 191 191 190 191 192 193 195 195 197 199 200 203 204 202 202 203 205 211 215 221 230 235 242 248 251 257 265 278 287 293 298 303 308 311 312 313 315 315 315 315 314 312 312 312 313 313 311 308 304 302 301 301 302 303 302 302 302 300 298 296 295 296 296 293 289 287 285 284 289 294 296 294 292 291 291 292 292 290 289 290 292 292
196 196 194 193 193 193 193 194 195 197 198 199 202 205 207 208 207 208 207 209 214 219 225 231 234 241 247 248 254 264 271 278 286 294 301 308 311 309 309 311 311 311 311 310 309 309 310 310 309 306 305 305 305 305 305 307 306 304 303 303 301 300 297 294 293 292 290 288 286 285 285 287 288 288 288 288 287 288 288 287 285 283 282 283 284
198 198 195 195 196 195 195 196 197 199 200 202 205 208 210 211 211 210 210 212 218 221 226 231 235 241 245 247 252 261 267 275 286 295 303 309 310 307 306 307 307 307 306 305 305 306 306 306 306 307 309 311 312 311 310 308 306 304 302 300 298 297 295 293 293 292 290 286 283 282 283 284 283 283 286 286 284 283 283 283 284 283 281 282 284
200 199 197 197 197 195 196 198 200 201 202 204 208 210 211 212 212 212 213 217 221 224 228 231 236 241 244 246 250 256 267 278 288 297 305 309 307 303 303 305 305 305 305 305 305 306 306 308 308 309 312 314 313 310 307 306 303 301 298 295 294 293 293 294 295 295 292 288 285 284 284 284 284 283 284 284 282 281 282 284 286 287 286 286 288
202 202 200 199 197 197 199 201 202 203 204 206 209 210 211 212 213 214 216 219 221 224 229 232 235 239 241 245 250 255 267 281 291 300 306 308 303 300 302 304 304 305 307 308 306 304 305 309 310 310 310 311 309 305 304 303 300 297 296 295 295 294 294 295 294 292 291 291 289 288 287 288 288 287 288 290 291 293 295 295 295 296 294 292 293
204 204 202 200 199 201 204 204 204 205 206 208 210 211 211 212 213 215 217 219 221 224 230 234 235 238 239 244 252 260 270 283 293 300 303 304 301 299 301 303 303 305 306 306 304 301 299 304 308 306 303 303 304 304 305 305 303 302 301 299 298 295 294 294 293 291 293 295 295 294 294 295 299 300 301 302 303 305 306 303 301 300 298 295 293
206 205 205 205 205 207 207 206 207 208 209 211 212 212 213 212 214 217 219 222 224 226 231 235 236 237 240 244 254 265 275 284 291 296 299 298 295 295 296 299 301 302 300 299 300 297 298 303 303 299 298 300 303 306 308 309 307 305 302 299 298 297 298 303 304 303 303 302 300 300 299 300 302 302 301 300 301 302 301 297 296 297 294 290 291
208 208 209 209 209 209 208 207 210 212 213 214 215 214 214 214 215 218 219 222 225 228 230 234 237 238 239 244 256 268 277 284 288 291 292 290 288 289 292 295 296 296 294 295 298 299 307 313 310 301 300 302 304 307 309 309 307 307 307 308 309 310 312 314 313 311 309 306 304 302 300 299 300 300 300 300 299 298 296 293 293 292 288 286 289
212 211 212 211 211 211 210 211 213 216 216 217 217 215 215 215 215 216 218 220 223 227 231 234 237 239 239 243 254 267 277 282 285 287 287 284 282 283 285 286 286 286 286 294 302 306 312 315 312 306 303 303 306 308 309 310 311 314 318 320 318 315 316 316 314 311 309 307 305 304 303 303 304 305 305 304 303 301 299 297 297 295 292 292 291
214 213 212 213 214 215 214 215 216 218 219 219 217 215 214 215 216 216 218 219 221 226 230 234 237 239 240 244 252 263 274 279 283 285 284 280 275 271 271 275 280 285 291 298 304 305 305 306 308 308 305 306 309 311 312 314 315 316 317 316 314 315 318 317 314 313 313 312 311 311 310 311 313 312 312 311 309 307 305 304 305 304 303 304 304
215 215 214 216 218 218 218 218 218 219 219 218 216 214 213 215 216 216 217 219 221 225 229 232 237 239 241 244 249 258 268 275 281 284 280 275 271 263 263 269 275 282 288 293 293 295 301 305 306 306 306 308 311 313 315 317 318 317 316 316 319 321 320 316 317 321 322 322 321 319 319 321 321 320 319 317 315 313 312 311 310 307 304 303 304
218 217 217 218 220 220 220 219 218 218 218 217 215 213 212 213 214 214 216 217 220 224 227 231 237 240 241 242 245 252 261 270 279 283 279 273 267 257 254 258 260 265 275 282 287 295 302 303 301 304 309 312 313 316 317 319 320 320 320 323 325 324 321 322 328 333 331 328 327 326 325 327 325 323 322 321 318 317 316 315 313 310 306 304 303
220 219 219 220 220 220 220 219 218 218 217 216 213 212 212 212 212 213 215 217 220 224 226 229 234 237 241 244 245 249 257 267 275 279 277 273 264 253 249 250 253 260 270 279 287 293 295 295 300 308 312 313 315 315 317 319 321 322 325 328 327 326 327 332 337 337 333 331 330 327 326 327 326 323 322 320 317 316 317 317 315 313 311 310 308
219 219 219 219 218 218 217 217 217 218 217 216 214 212 212 211 211 212 214 216 220 223 226 229 232 235 239 242 244 248 255 264 270 271 270 265 254 246 246 250 257 262 268 274 280 285 289 295 305 310 311 313 315 314 315 320 324 325 327 330 330 332 336 338 337 334 331 329 327 324 324 326 325 323 323 321 320 320 321 321 321 319 318 316 313
219 219 217 217 217 216 215 215 216 216 217 217 216 216 215 214 213 214 214 217 221 224 226 227 229 231 235 238 241 242 245 255 263 265 262 255 241 235 243 253 258 262 267 271 275 282 289 295 303 307 309 311 312 312 315 320 324 328 332 335 337 340 341 338 334 331 326 324 323 323 322 324 324 324 326 325 324 324 325 324 322 321 322 319 315
220 217 215 215 215 215 215 215 215 215 216 216 215 216 217 217 216 216 216 216 218 221 223 224 225 227 231 233 235 237 239 247 254 256 254 245 228 221 238 255 260 263 266 269 276 285 289 293 298 302 304 306 310 314 318 322 327 333 337 341 342 342 341 338 333 329 326 324 323 322 323 324 324 325 326 325 324 325 327 325 320 318 320 319 313
221 218 217 216 216 217 217 217 217 216 216 216 215 216 216 217 217 220 221 220 220 221 223 224 226 229 230 229 226 225 232 244 251 251 244 228 216 220 248 263 273 276 268 267 278 287 289 291 296 300 304 309 314 320 323 326 330 332 335 340 343 343 344 343 339 336 334 330 326 324 325 325 325 326 327 326 325 327 329 327 322 320 320 319 313
222 220 219 218 219 219 218 219 219 219 218 218 218 219 221 221 221 223 226 227 229 231 232 232 234 235 233 230 224 221 228 242 251 246 232 218 216 234 256 262 269 272 264 263 275 281 282 289 296 301 308 311 314 318 321 325 328 330 334 339 341 343 346 345 342 340 337 333 328 325 325 326 327 331 332 329 327 328 329 328 325 323 322 319 314
221 220 219 220 220 220 219 220 221 221 221 220 219 220 222 224 225 227 228 229 231 233 235 238 241 238 234 233 232 230 236 245 237 219 212 213 222 241 253 257 262 264 259 259 267 272 279 289 294 298 303 305 307 311 315 318 321 325 332 336 337 340 342 340 339 338 335 332 328 325 325 328 331 334 334 331 330 330 330 329 327 325 323 320 315
223 222 222 222 223 222 221 221 221 221 222 222 221 220 222 224 226 228 230 230 230 231 233 237 240 238 235 233 231 231 235 234 218 208 210 218 229 240 247 252 256 258 257 259 263 268 277 286 289 291 296 296 298 302 306 309 313 318 324 328 332 336 335 334 336 335 333 331 327 325 328 333 333 333 334 332 330 330 330 330 329 327 324 321 315
229 228 228 227 226 226 224 223 223 223 223 223 223 222 222 223 225 227 228 229 229 229 230 233 234 235 235 232 230 230 229 222 217 217 220 226 231 235 242 249 252 251 249 250 257 266 273 278 281 285 287 288 292 296 299 301 306 312 316 319 324 329 330 331 333 331 330 328 324 322 329 334 333 332 334 334 333 332 331 330 329 327 325 322 318
234 234 233 230 228 227 226 225 224 223 223 222 222 221 220 221 223 223 223 226 229 230 230 229 228 227 227 227 230 234 231 223 221 223 223 223 225 229 237 244 244 243 244 248 254 262 268 269 272 277 280 284 290 293 295 297 302 306 310 312 316 322 326 328 330 329 330 328 322 320 328 332 332 332 333 334 335 333 331 330 329 327 325 322 320
238 237 236 234 231 229 227 226 225 224 224 223 222 222 221 221 222 220 216 214 218 223 225 225 224 223 223 223 223 225 226 223 222 223 222 220 221 226 234 237 234 235 243 251 255 261 264 263 266 271 275 280 286 289 292 296 298 301 305 309 313 319 323 326 328 330 332 330 324 322 326 329 331 332 332 333 335 334 332 332 330 327 325 323 320
241 238 237 236 235 233 231 229 227 226 225 224 223 223 222 221 221 220 218 213 213 216 218 219 218 220 223 225 222 220 221 222 224 225 225 223 221 223 225 226 227 233 242 247 251 257 260 259 263 268 271 276 282 284 287 292 295 298 304 309 314 319 322 326 329 333 333 329 324 322 323 324 327 330 329 330 332 333 332 331 331 328 325 322 321
241 239 236 235 235 235 234 232 230 228 227 226 226 225 224 222 220 220 221 220 218 219 222 223 222 221 223 226 226 222 221 224 226 226 226 224 221 218 219 222 231 243 248 247 248 254 258 259 262 266 269 275 281 284 287 291 293 296 300 305 311 317 322 327 330 329 326 323 320 320 320 321 324 327 328 327 328 330 330 330 330 329 326 324 323
242 240 238 236 235 235 235 233 232 231 229 228 227 225 225 224 222 221 220 220 219 221 222 224 224 222 219 221 223 223 221 223 225 226 227 224 220 219 223 230 239 248 249 247 247 251 255 258 261 265 269 273 278 283 288 291 293 295 298 302 307 314 320 324 323 319 318 318 319 319 318 318 321 325 326 325 324 326 329 330 329 328 327 326 324
244 243 241 238 236 234 232 230 229 228 227 227 226 224 223 223 221 220 220 220 219 220 221 222 224 224 224 225 227 225 220 216 217 221 221 219 219 224 231 238 243 245 246 246 247 250 255 259 262 265 269 274 278 283 289 293 295 297 298 301 305 310 315 318 318 318 319 319 318 316 315 317 321 325 326 324 321 323 327 329 328 327 326 325 323
243 241 239 237 234 232 229 227 225 223 222 222 221 220 219 219 219 218 219 219 219 221 223 224 227 232 235 234 231 227 221 215 215 218 217 215 219 228 236 241 243 243 244 244 245 250 255 259 263 266 271 276 281 286 290 294 297 298 299 301 303 306 308 311 313 316 317 317 317 316 313 313 318 323 324 322 321 321 325 328 327 326 324 322 321
241 237 234 232 230 227 226 225 223 221 219 219 217 216 215 216 216 216 216 217 219 222 225 228 233 239 241 236 229 226 224 221 221 223 223 221 223 229 236 241 242 243 245 246 247 251 256 260 264 268 272 276 282 287 290 294 296 298 299 299 299 301 303 304 305 308 311 314 315 314 310 310 315 320 321 321 320 321 324 326 326 326 325 322 321
237 232 228 226 224 222 222 221 221 220 219 218 216 215 214 214 215 216 216 218 221 224 229 234 239 244 246 240 231 228 230 231 229 227 226 226 227 231 237 242 243 244 247 250 252 254 259 264 268 270 272 276 280 284 287 290 292 294 295 296 296 298 300 301 302 303 306 309 310 309 306 307 311 315 318 319 319 321 324 325 326 326 326 324 323
229 224 220 218 217 216 217 216 216 216 215 215 214 215 215 215 216 217 219 222 224 227 232 239 243 246 246 241 231 227 233 237 234 227 225 227 229 235 241 244 244 246 249 252 254 258 263 267 270 273 276 279 282 285 287 289 291 291 291 292 293 294 296 299 300 301 303 306 306 304 302 302 306 312 315 316 316 319 323 325 326 327 327 325 325
220 215 211 211 211 212 214 213 212 211 211 212 214 215 218 219 220 222 224 226 228 231 235 239 244 247 246 240 228 224 231 237 236 233 232 232 234 240 245 245 246 249 251 253 257 260 263 267 270 273 277 280 283 287 289 290 292 292 290 290 291 291 293 295 297 299 302 303 303 302 299 299 304 310 313 312 313 317 320 322 324 326 327 326 327
207 202 201 202 204 207 210 211 210 211 211 212 214 216 219 222 224 226 230 232 234 237 239 241 244 248 247 241 229 222 224 230 233 236 239 240 243 250 254 254 254 255 255 257 260 262 264 268 270 272 275 278 281 285 288 290 291 290 289 289 289 288 289 291 294 296 298 298 298 298 297 298 304 308 309 309 311 313 316 319 321 324 326 327 328
196 193 193 193 194 198 203 205 207 209 209 211 214 218 222 226 228 231 235 238 240 243 245 247 248 248 248 246 239 230 227 230 233 237 243 247 252 258 262 262 262 261 260 262 265 266 267 270 272 273 276 277 279 282 284 286 286 287 287 287 287 287 288 291 292 292 292 292 292 292 292 296 302 303 301 303 306 308 311 315 318 321 323 325 327
190 189 189 190 190 192 195 199 203 207 209 213 217 221 225 229 232 235 238 242 245 248 250 252 252 251 250 250 250 245 240 239 239 242 247 251 255 259 261 263 264 265 265 266 267 268 269 272 273 275 277 279 280 281 281 282 283 284 283 284 284 285 287 289 290 289 288 287 287 288 289 294 297 295 293 298 302 303 306 311 315 318 320 322 324
188 188 190 191 192 194 197 200 204 208 213 217 221 226 230 234 237 239 242 245 248 250 251 253 254 254 254 255 256 255 254 251 250 250 251 252 254 256 258 261 263 264 266 267 267 268 269 271 273 276 278 280 280 281 280 280 281 280 280 280 281 283 286 288 288 288 286 285 284 284 288 292 292 288 289 295 298 298 302 307 312 315 317 319 321
187 190 193 196 198 200 204 208 210 214 219 222 225 229 233 236 239 242 244 247 249 250 252 254 255 257 259 259 260 261 261 261 260 259 257 256 256 255 256 258 261 263 265 267 267 268 269 271 273 275 277 278 280 280 280 280 279 278 278 280 281 282 285 287 286 285 285 283 282 284 287 290 287 284 286 291 294 296 299 302 307 312 315 316 319
190 194 199 205 209 212 217 221 223 225 228 229 231 234 236 238 242 245 249 252 254 255 256 258 259 261 262 263 263 264 264 263 264 264 263 262 262 261 260 261 262 263 265 267 267 269 270 271 272 274 275 276 278 279 279 279 279 278 280 281 281 282 283 282 282 285 286 283 282 283 285 285 282 281 284 289 292 293 296 299 304 309 311 312 317
201 208 214 219 222 226 231 233 234 236 236 236 238 241 242 244 247 251 253 256 258 259 261 263 264 265 266 267 267 268 268 268 269 270 270 269 268 267 266 266 266 266 267 269 270 271 272 272 272 273 274 275 276 277 278 279 280 280 281 282 282 281 281 279 280 282 282 281 283 284 283 280 279 281 285 288 288 290 295 299 302 306 308 309 313
214 226 232 235 235 236 238 240 241 242 243 243 245 248 249 252 256 258 259 260 262 264 266 268 270 270 271 272 272 272 272 273 274 275 275 274 274 273 273 272 272 271 272 273 273 274 274 273 272 272 272 273 275 276 276 278 279 280 281 282 281 281 282 283 284 284 282 283 286 285 280 277 277 279 282 284 285 287 292 297 299 302 305 308 311